TimeCST,TemperatureF,Dew PointF,Humidity,Sea Level PressureIn,VisibilityMPH,Wind Direction,Wind SpeedMPH,Gust SpeedMPH,PrecipitationIn,Events,Conditions,WindDirDegrees,DateUTC
12:15 AM,24.8,5.0,43,30.23,10.0,Calm,Calm,-,N/A,,Clear,0,2013-02-17 06:15:00
12:35 AM,24.8,6.8,46,30.22,10.0,Calm,Calm,-,N/A,,Clear,0,2013-02-17 06:35:00
12:55 AM,24.8,5.0,43,30.22,10.0,North,3.5,-,N/A,,Clear,350,2013-02-17 06:55:00
1:15 AM,23.0,3.2,43,30.21,10.0,North,3.5,-,N/A,,Clear,10,2013-02-17 07:15:00
1:35 AM,23.0,5.0,46,30.21,10.0,NNE,4.6,-,N/A,,Clear,30,2013-02-17 07:35:00
1:55 AM,23.0,5.0,46,30.20,10.0,NNE,5.8,-,N/A,,Clear,30,2013-02-17 07:55:00
2:15 AM,21.2,5.0,50,30.20,10.0,NNE,4.6,-,N/A,,Clear,30,2013-02-17 08:15:00
2:35 AM,21.2,5.0,50,30.19,10.0,NNE,3.5,-,N/A,,Clear,20,2013-02-17 08:35:00
2:55 AM,19.4,3.2,49,30.18,10.0,North,3.5,-,N/A,,Clear,360,2013-02-17 08:55:00
3:15 AM,21.2,5.0,50,30.17,10.0,North,3.5,-,N/A,,Clear,360,2013-02-17 09:15:00
3:35 AM,19.4,3.2,49,30.16,10.0,North,3.5,-,N/A,,Clear,360,2013-02-17 09:35:00
3:55 AM,19.4,3.2,49,30.16,10.0,North,4.6,-,N/A,,Clear,360,2013-02-17 09:55:00
4:15 AM,19.4,3.2,49,30.16,10.0,North,4.6,-,N/A,,Clear,10,2013-02-17 10:15:00
4:35 AM,19.4,3.2,49,30.15,10.0,NE,4.6,-,N/A,,Clear,40,2013-02-17 10:35:00
4:55 AM,17.6,1.4,49,30.14,10.0,NE,4.6,-,N/A,,Clear,40,2013-02-17 10:55:00
5:15 AM,19.4,6.8,58,30.14,10.0,NE,4.6,-,N/A,,Clear,50,2013-02-17 11:15:00
5:35 AM,15.8,1.4,53,30.14,10.0,NNE,5.8,-,N/A,,Clear,30,2013-02-17 11:35:00
5:55 AM,17.6,3.2,53,30.13,10.0,NNE,3.5,-,N/A,,Clear,20,2013-02-17 11:55:00
6:15 AM,19.4,3.2,49,30.13,10.0,NNE,3.5,-,N/A,,Clear,20,2013-02-17 12:15:00
6:35 AM,17.6,1.4,49,30.13,10.0,NNE,5.8,-,N/A,,Clear,30,2013-02-17 12:35:00
6:55 AM,17.6,1.4,49,30.13,10.0,NNE,4.6,-,N/A,,Clear,30,2013-02-17 12:55:00
7:15 AM,17.6,3.2,53,30.13,10.0,NNE,4.6,-,N/A,,Clear,30,2013-02-17 13:15:00
7:35 AM,17.6,1.4,49,30.12,10.0,North,5.8,-,N/A,,Clear,10,2013-02-17 13:35:00
7:55 AM,19.4,3.2,49,30.12,10.0,NNE,5.8,-,N/A,,Clear,20,2013-02-17 13:55:00
8:15 AM,23.0,6.8,50,30.12,10.0,NNE,6.9,-,N/A,,Clear,20,2013-02-17 14:15:00
8:35 AM,30.2,12.2,47,30.12,10.0,North,3.5,-,N/A,,Clear,360,2013-02-17 14:35:00
8:55 AM,37.4,12.2,36,30.12,10.0,North,3.5,-,N/A,,Clear,350,2013-02-17 14:55:00
9:15 AM,41.0,12.2,31,30.13,10.0,North,3.5,-,N/A,,Clear,360,2013-02-17 15:15:00
9:35 AM,44.6,15.8,31,30.13,10.0,Calm,Calm,-,N/A,,Clear,0,2013-02-17 15:35:00
9:55 AM,46.4,17.6,32,30.13,10.0,Calm,Calm,-,N/A,,Clear,0,2013-02-17 15:55:00
10:15 AM,48.2,17.6,30,30.13,10.0,South,4.6,-,N/A,,Clear,180,2013-02-17 16:15:00
10:35 AM,51.8,15.8,24,30.12,10.0,South,9.2,-,N/A,,Clear,190,2013-02-17 16:35:00
10:55 AM,53.6,15.8,22,30.11,10.0,South,11.5,-,N/A,,Clear,180,2013-02-17 16:55:00
11:15 AM,55.4,15.8,21,30.11,10.0,South,9.2,-,N/A,,Clear,190,2013-02-17 17:15:00
11:35 AM,57.2,15.8,20,30.11,10.0,South,11.5,-,N/A,,Clear,170,2013-02-17 17:35:00
11:55 AM,57.2,15.8,20,30.10,10.0,South,11.5,-,N/A,,Clear,180,2013-02-17 17:55:00
12:15 PM,59.0,15.8,19,30.08,10.0,South,11.5,16.1,N/A,,Clear,170,2013-02-17 18:15:00
12:35 PM,60.8,15.8,17,30.07,10.0,South,11.5,-,N/A,,Clear,170,2013-02-17 18:35:00
12:55 PM,62.6,17.6,18,30.05,10.0,South,12.7,-,N/A,,Clear,190,2013-02-17 18:55:00
1:15 PM,62.6,17.6,18,30.04,10.0,SSW,17.3,23.0,N/A,,Clear,200,2013-02-17 19:15:00
1:35 PM,64.4,17.6,16,30.03,10.0,SSW,15.0,21.9,N/A,,Clear,200,2013-02-17 19:35:00
1:55 PM,64.4,17.6,16,30.01,10.0,South,11.5,18.4,N/A,,Clear,170,2013-02-17 19:55:00
2:15 PM,64.4,17.6,16,30.00,10.0,SSW,15.0,19.6,N/A,,Clear,210,2013-02-17 20:15:00
2:35 PM,66.2,17.6,15,29.98,10.0,South,17.3,21.9,N/A,,Clear,190,2013-02-17 20:35:00
2:55 PM,66.2,17.6,15,29.97,10.0,South,12.7,20.7,N/A,,Clear,170,2013-02-17 20:55:00
3:15 PM,66.2,17.6,15,29.96,10.0,South,15.0,21.9,N/A,,Clear,180,2013-02-17 21:15:00
3:35 PM,66.2,17.6,15,29.96,10.0,South,8.1,20.7,N/A,,Clear,170,2013-02-17 21:35:00
3:55 PM,66.2,15.8,14,29.95,10.0,West,11.5,19.6,N/A,,Clear,260,2013-02-17 21:55:00
4:15 PM,66.2,14.0,13,29.95,10.0,West,18.4,23.0,N/A,,Clear,260,2013-02-17 22:15:00
4:35 PM,66.2,12.2,12,29.94,10.0,WSW,19.6,23.0,N/A,,Clear,250,2013-02-17 22:35:00
4:55 PM,66.2,10.4,11,29.94,10.0,WSW,16.1,19.6,N/A,,Clear,250,2013-02-17 22:55:00
5:15 PM,66.2,10.4,11,29.94,10.0,WSW,12.7,-,N/A,,Clear,240,2013-02-17 23:15:00
5:35 PM,64.4,8.6,11,29.94,10.0,SW,12.7,19.6,N/A,,Clear,230,2013-02-17 23:35:00
5:55 PM,64.4,8.6,11,29.94,10.0,WSW,15.0,-,N/A,,Clear,240,2013-02-17 23:55:00
6:15 PM,62.6,6.8,11,29.94,10.0,WSW,12.7,-,N/A,,Clear,240,2013-02-18 00:15:00
6:35 PM,59.0,6.8,13,29.95,10.0,West,8.1,-,N/A,,Clear,260,2013-02-18 00:35:00
6:55 PM,57.2,3.2,11,29.95,10.0,West,5.8,-,N/A,,Clear,260,2013-02-18 00:55:00
7:15 PM,53.6,3.2,13,29.95,10.0,WSW,3.5,-,N/A,,Clear,250,2013-02-18 01:15:00
7:35 PM,51.8,3.2,14,29.95,10.0,SSE,5.8,-,N/A,,Clear,160,2013-02-18 01:35:00
7:55 PM,51.8,6.8,16,29.94,10.0,South,4.6,-,N/A,,Clear,180,2013-02-18 01:55:00
8:15 PM,48.2,5.0,17,29.94,10.0,South,3.5,-,N/A,,Clear,180,2013-02-18 02:15:00
8:35 PM,44.6,3.2,18,29.95,10.0,SE,5.8,-,N/A,,Clear,130,2013-02-18 02:35:00
8:55 PM,44.6,10.4,25,29.95,10.0,SSE,4.6,-,N/A,,Clear,150,2013-02-18 02:55:00
9:15 PM,39.2,8.6,28,29.95,10.0,East,5.8,-,N/A,,Clear,80,2013-02-18 03:15:00
9:35 PM,37.4,10.4,33,29.95,10.0,East,4.6,-,N/A,,Clear,100,2013-02-18 03:35:00
9:55 PM,35.6,8.6,33,29.95,10.0,Calm,Calm,-,N/A,,Clear,0,2013-02-18 03:55:00
10:15 PM,35.6,8.6,33,29.95,10.0,Calm,Calm,-,N/A,,Clear,0,2013-02-18 04:15:00
10:35 PM,33.8,8.6,35,29.95,10.0,Calm,Calm,-,N/A,,Clear,0,2013-02-18 04:35:00
10:55 PM,30.2,6.8,37,29.95,10.0,North,4.6,-,N/A,,Clear,350,2013-02-18 04:55:00
11:15 PM,32.0,8.6,38,29.95,10.0,North,4.6,-,N/A,,Clear,10,2013-02-18 05:15:00
11:35 PM,33.8,10.4,38,29.95,10.0,ENE,4.6,-,N/A,,Clear,60,2013-02-18 05:35:00
11:55 PM,33.8,10.4,38,29.95,10.0,Calm,Calm,-,N/A,,Clear,0,2013-02-18 05:55:00